| time (UTC) | temp F | wind direction | speed knots | gust knots | rain 1hr in | rain 24hr in | rain mn in | humidity % | barometer mb |
| 20260504202314 | 66 | 251 | 11.3 | 19.1 | 0.00 | 0.00 | 0.00 | 34 | 1007.4 |
| 20260504201810 | 66 | 265 | 21.7 | 26.9 | 0.00 | 0.00 | 0.00 | 34 | 1007.2 |
| 20260504201308 | 66 | 251 | 20.9 | 27.8 | 0.00 | 0.00 | 0.00 | 33 | 1007.3 |
| 20260504200805 | 66 | 256 | 13.0 | 19.1 | 0.00 | 0.00 | 0.00 | 34 | 1007.4 |
| 20260504200301 | 66 | 259 | 14.8 | 26.1 | 0.00 | 0.00 | 0.00 | 34 | 1007.3 |
| 20260504195757 | 65 | 240 | 26.1 | 28.7 | 0.00 | 0.00 | 0.00 | 34 | 1007.2 |
| 20260504195253 | 66 | 260 | 17.4 | 22.6 | 0.00 | 0.00 | 0.00 | 34 | 1007.4 |
| 20260504194751 | 66 | 259 | 9.6 | 26.1 | 0.00 | 0.00 | 0.00 | 34 | 1007.4 |
| 20260504194247 | 66 | 249 | 12.2 | 26.9 | 0.00 | 0.00 | 0.00 | 33 | 1007.4 |
| 20260504193743 | 65 | 257 | 9.6 | 25.2 | 0.00 | 0.00 | 0.00 | 34 | 1007.6 |
| 20260504193241 | 66 | 257 | 26.9 | 26.9 | 0.00 | 0.00 | 0.00 | 33 | 1007.6 |
| 20260504192739 | 66 | 253 | 15.6 | 27.8 | 0.00 | 0.00 | 0.00 | 34 | 1007.5 |
| 20260504192237 | 65 | 260 | 14.8 | 25.2 | 0.00 | 0.00 | 0.00 | 35 | 1007.3 |
| 20260504191735 | 66 | 250 | 16.5 | 25.2 | 0.00 | 0.00 | 0.00 | 35 | 1007.3 |
| 20260504191232 | 66 | 257 | 9.6 | 13.0 | 0.00 | 0.00 | 0.00 | 35 | 1007.6 |
| 20260504190727 | 64 | 241 | 14.8 | 24.3 | 0.00 | 0.00 | 0.00 | 36 | 1007.7 |
| 20260504190224 | 64 | 242 | 13.0 | 27.8 | 0.00 | 0.00 | 0.00 | 36 | 1007.8 |
| 20260504185720 | 65 | 240 | 13.9 | 22.6 | 0.00 | 0.00 | 0.00 | 36 | 1007.7 |
| 20260504185217 | 64 | 262 | 14.8 | 22.6 | 0.00 | 0.00 | 0.00 | 36 | 1007.9 |
| 20260504184713 | 64 | 246 | 15.6 | 27.8 | 0.00 | 0.00 | 0.00 | 36 | 1007.9 |
| 20260504184209 | 64 | 227 | 16.5 | 18.2 | 0.00 | 0.00 | 0.00 | 36 | 1007.7 |
| 20260504183705 | 64 | 269 | 15.6 | 22.6 | 0.00 | 0.00 | 0.00 | 36 | 1007.7 |
| 20260504183202 | 63 | 237 | 22.6 | 26.9 | 0.00 | 0.00 | 0.00 | 37 | 1007.8 |
| 20260504182700 | 63 | 239 | 21.7 | 28.7 | 0.00 | 0.00 | 0.00 | 37 | 1007.9 |
| 20260504182157 | 62 | 262 | 16.5 | 22.6 | 0.00 | 0.00 | 0.00 | 38 | 1007.9 |
| 20260504181655 | 62 | 241 | 14.8 | 20.0 | 0.00 | 0.00 | 0.00 | 38 | 1008.0 |
| 20260504181152 | 62 | 229 | 18.2 | 21.7 | 0.00 | 0.00 | 0.00 | 38 | 1008.1 |
| 20260504180651 | 62 | 265 | 20.0 | 24.3 | 0.00 | 0.00 | 0.00 | 37 | 1008.2 |
| 20260504180149 | 62 | 272 | 8.7 | 20.0 | 0.00 | 0.00 | 0.00 | 39 | 1008.2 |
| 20260504175646 | 62 | 259 | 11.3 | 17.4 | 0.00 | 0.00 | 0.00 | 39 | 1008.4 |
| 20260504175143 | 62 | 249 | 20.9 | 22.6 | 0.00 | 0.00 | 0.00 | 38 | 1008.0 |
| 20260504174641 | 62 | 245 | 20.0 | 26.1 | 0.00 | 0.00 | 0.00 | 38 | 1008.2 |
| 20260504174137 | 62 | 236 | 12.2 | 18.2 | 0.00 | 0.00 | 0.00 | 38 | 1008.2 |
| 20260504173635 | 61 | 238 | 12.2 | 20.0 | 0.00 | 0.00 | 0.00 | 38 | 1008.1 |
| 20260504173132 | 61 | 281 | 18.2 | 26.9 | 0.00 | 0.00 | 0.00 | 38 | 1008.1 |
| 20260504172629 | 61 | 243 | 14.8 | 20.0 | 0.00 | 0.00 | 0.00 | 39 | 1008.1 |
| 20260504172125 | 61 | 235 | 20.9 | 28.7 | 0.00 | 0.00 | 0.00 | 39 | 1008.0 |
| 20260504171621 | 61 | 233 | 19.1 | 26.1 | 0.00 | 0.00 | 0.00 | 39 | 1008.0 |
| 20260504171119 | 61 | 239 | 25.2 | 27.8 | 0.00 | 0.00 | 0.00 | 38 | 1008.2 |
| 20260504170615 | 61 | 247 | 11.3 | 24.3 | 0.00 | 0.00 | 0.00 | 39 | 1008.0 |
| 20260504170113 | 61 | 249 | 13.0 | 29.5 | 0.00 | 0.00 | 0.00 | 39 | 1008.2 |
| 20260504150958 | 59 | 244 | 16.5 | 26.9 | 0.00 | 0.00 | 0.00 | 38 | 1008.6 |
| 20260504150455 | 59 | 233 | 18.2 | 33.0 | 0.00 | 0.00 | 0.00 | 38 | 1008.8 |
| 20260504140922 | 57 | 258 | 22.6 | 25.2 | 0.00 | 0.00 | 0.00 | 41 | 1008.7 |
| 20260504140418 | 57 | 235 | 13.0 | 17.4 | 0.00 | 0.00 | 0.00 | 43 | 1009.1 |
| 20260504130343 | 52 | 215 | 6.1 | 13.9 | 0.00 | 0.00 | 0.00 | 55 | 1009.7 |
| 20260504120306 | 47 | 239 | 3.5 | 7.0 | 0.00 | 0.00 | 0.00 | 64 | 1010.4 |
| 20260504110230 | 43 | 184 | 4.3 | 8.7 | 0.00 | 0.00 | 0.00 | 68 | 1010.8 |
| 20260504100154 | 43 | 175 | 3.5 | 4.3 | 0.00 | 0.00 | 0.00 | 65 | 1010.4 |
| 20260504090116 | 42 | 192 | 4.3 | 7.0 | 0.00 | 0.00 | 0.00 | 63 | 1010.6 |
| 20260504081546 | 42 | 179 | 2.6 | 5.2 | 0.00 | 0.00 | 0.00 | 61 | 1010.4 |
| 20260504081042 | 42 | 203 | 2.6 | 3.5 | 0.00 | 0.00 | 0.00 | 60 | 1010.7 |
| 20260504080539 | 42 | 191 | 3.5 | 4.3 | 0.00 | 0.00 | 0.00 | 61 | 1010.8 |
| 20260504050352 | 41 | 227 | 3.5 | 3.5 | 0.00 | 0.00 | 0.00 | 55 | 1010.5 |
| 20260504045849 | 40 | 267 | 3.5 | 3.5 | 0.00 | 0.00 | 0.00 | 56 | 1010.6 |
| 20260504045350 | 40 | 239 | 1.7 | 4.3 | 0.00 | 0.00 | 0.00 | 56 | 1010.4 |
| 20260504044847 | 41 | 249 | 0.0 | 3.5 | 0.00 | 0.00 | 0.00 | 55 | 1010.3 |
| 20260504044344 | 41 | 253 | 1.7 | 2.6 | 0.00 | 0.00 | 0.00 | 53 | 1010.7 |
| 20260504043841 | 42 | 222 | 1.7 | 4.3 | 0.00 | 0.00 | 0.00 | 50 | 1010.4 |
| 20260504043338 | 42 | 242 | 2.6 | 6.1 | 0.00 | 0.00 | 0.00 | 50 | 1010.5 |
| 20260504042835 | 42 | 231 | 6.1 | 7.0 | 0.00 | 0.00 | 0.00 | 51 | 1010.4 |
| 20260504042332 | 42 | 232 | 7.8 | 7.8 | 0.00 | 0.00 | 0.00 | 50 | 1010.5 |
| 20260504041828 | 42 | 234 | 6.1 | 7.8 | 0.00 | 0.00 | 0.00 | 50 | 1010.4 |
| 20260504041324 | 42 | 242 | 5.2 | 6.1 | 0.00 | 0.00 | 0.00 | 51 | 1010.3 |
| 20260504040821 | 42 | 233 | 4.3 | 7.8 | 0.00 | 0.00 | 0.00 | 50 | 1010.3 |
| 20260504040318 | 42 | 228 | 6.1 | 7.0 | 0.00 | 0.00 | 0.00 | 50 | 1010.4 |
| 20260504035814 | 42 | 219 | 6.1 | 7.0 | 0.00 | 0.00 | 0.00 | 51 | 1010.4 |
| 20260504035312 | 41 | 225 | 5.2 | 7.0 | 0.00 | 0.00 | 0.00 | 52 | 1010.1 |
| 20260504034809 | 41 | 223 | 7.0 | 7.8 | 0.00 | 0.00 | 0.00 | 55 | 1010.1 |
| 20260504034306 | 39 | 223 | 6.1 | 7.8 | 0.00 | 0.00 | 0.00 | 59 | 1010.1 |
| 20260504033803 | 40 | 240 | 7.0 | 7.8 | 0.00 | 0.00 | 0.00 | 59 | 1010.1 |
| 20260504033301 | 40 | 252 | 4.3 | 6.1 | 0.00 | 0.00 | 0.00 | 58 | 1010.4 |
| 20260504032757 | 41 | 241 | 5.2 | 6.1 | 0.00 | 0.00 | 0.00 | 56 | 1010.1 |
| 20260504032254 | 41 | 265 | 4.3 | 6.1 | 0.00 | 0.00 | 0.00 | 55 | 1010.1 |
| 20260504031751 | 42 | 253 | 3.5 | 7.0 | 0.00 | 0.00 | 0.00 | 52 | 1010.0 |
| 20260504031249 | 42 | 204 | 4.3 | 5.2 | 0.00 | 0.00 | 0.00 | 51 | 1010.1 |
| 20260504030744 | 42 | 220 | 5.2 | 5.2 | 0.00 | 0.00 | 0.00 | 50 | 1009.9 |
| 20260504030242 | 43 | 241 | 5.2 | 6.1 | 0.00 | 0.00 | 0.00 | 49 | 1010.1 |
| 20260504025738 | 43 | 239 | 7.0 | 7.8 | 0.00 | 0.00 | 0.00 | 50 | 1010.1 |
| 20260504025235 | 42 | 220 | 7.8 | 8.7 | 0.00 | 0.00 | 0.00 | 52 | 1010.3 |
| 20260504024732 | 42 | 225 | 6.1 | 7.8 | 0.00 | 0.00 | 0.00 | 51 | 1010.0 |
| 20260504024229 | 43 | 242 | 7.0 | 7.0 | 0.00 | 0.00 | 0.00 | 51 | 1010.4 |
| 20260504023726 | 43 | 238 | 6.1 | 7.0 | 0.00 | 0.00 | 0.00 | 51 | 1010.3 |
| 20260504023221 | 43 | 258 | 4.3 | 7.8 | 0.00 | 0.00 | 0.00 | 51 | 1010.0 |
| 20260504022718 | 43 | 240 | 7.8 | 7.8 | 0.00 | 0.00 | 0.00 | 52 | 1010.5 |
| 20260504022214 | 43 | 245 | 6.1 | 7.0 | 0.00 | 0.00 | 0.00 | 51 | 1010.5 |
| 20260504021712 | 43 | 247 | 4.3 | 5.2 | 0.00 | 0.00 | 0.00 | 50 | 1010.4 |
| 20260504021209 | 43 | 236 | 4.3 | 6.1 | 0.00 | 0.00 | 0.00 | 49 | 1010.4 |
| 20260504020705 | 43 | 213 | 3.5 | 5.2 | 0.00 | 0.00 | 0.00 | 50 | 1010.3 |
| 20260504020201 | 44 | 223 | 3.5 | 3.5 | 0.00 | 0.00 | 0.00 | 49 | 1010.3 |
| 20260504015658 | 44 | 245 | 4.3 | 4.3 | 0.00 | 0.00 | 0.00 | 48 | 1010.3 |
| 20260504015154 | 44 | 270 | 1.7 | 3.5 | 0.00 | 0.00 | 0.00 | 48 | 1010.0 |
| 20260504014650 | 44 | 267 | 4.3 | 5.2 | 0.00 | 0.00 | 0.00 | 47 | 1010.3 |
| 20260504014147 | 44 | 178 | 1.7 | 1.7 | 0.00 | 0.00 | 0.00 | 47 | 1010.3 |
| 20260504013645 | 45 | 293 | 1.7 | 7.0 | 0.00 | 0.00 | 0.00 | 46 | 1010.4 |
| 20260504013142 | 44 | 176 | 1.7 | 1.7 | 0.00 | 0.00 | 0.00 | 46 | 1010.4 |
| 20260504012639 | 45 | 201 | 3.5 | 3.5 | 0.00 | 0.00 | 0.00 | 46 | 1010.4 |
| 20260504012137 | 44 | 212 | 1.7 | 2.6 | 0.00 | 0.00 | 0.00 | 46 | 1010.4 |
| 20260504011633 | 44 | 242 | 3.5 | 4.3 | 0.00 | 0.00 | 0.00 | 46 | 1010.0 |
| 20260504011130 | 44 | 212 | 3.5 | 4.3 | 0.00 | 0.00 | 0.00 | 47 | 1010.1 |
| 20260504010626 | 44 | 230 | 3.5 | 4.3 | 0.00 | 0.00 | 0.00 | 47 | 1010.3 |
| 20260504010122 | 44 | 237 | 2.6 | 5.2 | 0.00 | 0.00 | 0.00 | 47 | 1010.1 |
| 20260504005619 | 45 | 239 | 4.3 | 6.1 | 0.00 | 0.00 | 0.00 | 47 | 1010.0 |
| 20260504005116 | 45 | 249 | 3.5 | 4.3 | 0.00 | 0.00 | 0.00 | 47 | 1010.3 |
| 20260504004614 | 44 | 244 | 3.5 | 5.2 | 0.00 | 0.00 | 0.00 | 48 | 1009.8 |
| 20260504004111 | 44 | 256 | 5.2 | 7.0 | 0.00 | 0.00 | 0.00 | 48 | 1009.8 |
| 20260504003607 | 44 | 251 | 5.2 | 5.2 | 0.00 | 0.00 | 0.00 | 48 | 1009.8 |
| 20260504003104 | 44 | 260 | 4.3 | 5.2 | 0.00 | 0.00 | 0.00 | 48 | 1009.8 |
| 20260504002601 | 45 | 265 | 2.6 | 4.3 | 0.00 | 0.00 | 0.00 | 47 | 1009.5 |
| 20260504002058 | 45 | 275 | 4.3 | 5.2 | 0.00 | 0.00 | 0.00 | 47 | 1009.6 |
| 20260504001556 | 45 | 274 | 5.2 | 7.8 | 0.00 | 0.00 | 0.00 | 46 | 1009.7 |
| 20260504001051 | 45 | 284 | 6.1 | 8.7 | 0.00 | 0.00 | 0.00 | 46 | 1009.4 |
| 20260504000549 | 45 | 293 | 7.0 | 10.4 | 0.00 | 0.00 | 0.00 | 46 | 1009.5 |
| 20260504000046 | 45 | 290 | 5.2 | 9.6 | 0.00 | 0.00 | 0.00 | 45 | 1009.4 |
| 20260503235544 | 45 | 269 | 7.8 | 9.6 | 0.00 | 0.00 | 0.00 | 45 | 1009.3 |
| 20260503235041 | 45 | 272 | 7.0 | 8.7 | 0.00 | 0.00 | 0.00 | 45 | 1009.3 |
| 20260503234538 | 46 | 284 | 8.7 | 11.3 | 0.00 | 0.00 | 0.00 | 44 | 1009.1 |
| 20260503234037 | 46 | 295 | 7.8 | 13.9 | 0.00 | 0.00 | 0.00 | 43 | 1009.2 |
| 20260503233533 | 46 | 271 | 10.4 | 12.2 | 0.00 | 0.00 | 0.00 | 43 | 1009.1 |
| 20260503233029 | 46 | 289 | 10.4 | 17.4 | 0.00 | 0.00 | 0.00 | 43 | 1009.2 |
| 20260503232526 | 46 | 298 | 12.2 | 17.4 | 0.00 | 0.00 | 0.00 | 43 | 1009.2 |
| 20260503232024 | 46 | 299 | 10.4 | 14.8 | 0.00 | 0.00 | 0.00 | 43 | 1009.1 |
| 20260503231521 | 46 | 292 | 13.9 | 18.2 | 0.00 | 0.00 | 0.00 | 42 | 1009.0 |
| 20260503231018 | 47 | 301 | 15.6 | 22.6 | 0.00 | 0.00 | 0.00 | 42 | 1008.8 |
| 20260503230514 | 47 | 288 | 20.9 | 21.7 | 0.00 | 0.00 | 0.00 | 41 | 1009.0 |
| 20260503230012 | 47 | 296 | 14.8 | 16.5 | 0.00 | 0.00 | 0.00 | 41 | 1008.8 |
| 20260503225509 | 47 | 294 | 7.0 | 20.0 | 0.00 | 0.00 | 0.00 | 42 | 1008.7 |
| 20260503225004 | 47 | 273 | 10.4 | 17.4 | 0.00 | 0.00 | 0.00 | 42 | 1008.8 |
| 20260503224501 | 46 | 324 | 12.2 | 14.8 | 0.00 | 0.00 | 0.00 | 42 | 1009.0 |
| 20260503223959 | 46 | 301 | 13.0 | 20.0 | 0.00 | 0.00 | 0.00 | 42 | 1009.0 |
| 20260503223457 | 47 | 290 | 13.9 | 24.3 | 0.00 | 0.00 | 0.00 | 42 | 1008.6 |
| 20260503222952 | 46 | 308 | 12.2 | 17.4 | 0.00 | 0.00 | 0.00 | 43 | 1008.6 |
| 20260503222451 | 46 | 305 | 9.6 | 9.6 | 0.00 | 0.00 | 0.00 | 43 | 1009.0 |
| 20260503221948 | 46 | 294 | 11.3 | 19.1 | 0.00 | 0.00 | 0.00 | 42 | 1008.6 |
| 20260503221447 | 46 | 311 | 14.8 | 16.5 | 0.00 | 0.00 | 0.00 | 42 | 1008.6 |
| 20260503220943 | 46 | 309 | 10.4 | 20.0 | 0.00 | 0.00 | 0.00 | 42 | 1008.6 |
| 20260503220439 | 47 | 268 | 16.5 | 23.5 | 0.00 | 0.00 | 0.00 | 41 | 1008.3 |
| 20260503215937 | 47 | 316 | 16.5 | 29.5 | 0.00 | 0.00 | 0.00 | 41 | 1008.2 |
| 20260503215433 | 47 | 280 | 16.5 | 18.2 | 0.00 | 0.00 | 0.00 | 42 | 1008.4 |
| 20260503214931 | 47 | 304 | 19.1 | 20.9 | 0.00 | 0.00 | 0.00 | 42 | 1008.5 |
| 20260503214429 | 47 | 278 | 13.9 | 18.2 | 0.00 | 0.00 | 0.00 | 42 | 1008.3 |
| 20260503213926 | 48 | 287 | 22.6 | 23.5 | 0.00 | 0.00 | 0.00 | 41 | 1008.2 |
| 20260503213424 | 47 | 276 | 9.6 | 18.2 | 0.00 | 0.00 | 0.00 | 43 | 1008.5 |
| 20260503212920 | 47 | 288 | 5.2 | 9.6 | 0.00 | 0.00 | 0.00 | 43 | 1008.4 |
| 20260503212418 | 47 | 301 | 16.5 | 23.5 | 0.00 | 0.00 | 0.00 | 42 | 1008.3 |
| 20260503211915 | 48 | 292 | 9.6 | 14.8 | 0.00 | 0.00 | 0.00 | 43 | 1008.5 |
| 20260503211412 | 47 | 286 | 8.7 | 13.0 | 0.00 | 0.00 | 0.00 | 43 | 1008.2 |
| 20260503210907 | 47 | 310 | 21.7 | 22.6 | 0.00 | 0.00 | 0.00 | 43 | 1008.2 |
| 20260503210405 | 47 | 288 | 9.6 | 17.4 | 0.00 | 0.00 | 0.00 | 43 | 1008.3 |
| 20260503205904 | 46 | 316 | 8.7 | 13.0 | 0.00 | 0.00 | 0.00 | 44 | 1008.3 |
| 20260503205402 | 46 | 303 | 8.7 | 18.2 | 0.00 | 0.00 | 0.00 | 45 | 1008.3 |
| 20260503204858 | 46 | 316 | 8.7 | 14.8 | 0.00 | 0.00 | 0.00 | 45 | 1008.1 |
| 20260503204356 | 46 | 350 | 7.8 | 16.5 | 0.00 | 0.00 | 0.00 | 44 | 1008.2 |
| 20260503203853 | 46 | 313 | 14.8 | 21.7 | 0.00 | 0.00 | 0.00 | 43 | 1008.2 |
| 20260503203350 | 47 | 282 | 10.4 | 21.7 | 0.00 | 0.00 | 0.00 | 42 | 1008.1 |
| 20260503202846 | 48 | 278 | 14.8 | 20.9 | 0.00 | 0.00 | 0.00 | 41 | 1007.9 |